This is the latest recevied weather packets stored in our database for station/object KE0TNI-13. If no packets are shown the sender has not sent any weather packets the latest 10 day(s).
| Time | Temp. | Humidity | Pressure | Rain* | Wind** | Luminosity | Snow |
|---|---|---|---|---|---|---|---|
| 1777877728 | 4.44° C | 48% | 1018.2 hPa | 0 mm | - | 0 W/m² | - |
| 1777877426 | 5° C | 47% | 1018 hPa | 0 mm | - | 0 W/m² | - |
| 1777877123 | 5° C | 48% | 1018 hPa | 0 mm | - | 0 W/m² | - |
| 1777876820 | 5° C | 48% | 1017.9 hPa | 0 mm | - | 0 W/m² | - |
| 1777876518 | 5° C | 46% | 1018.4 hPa | 0 mm | - | 0 W/m² | - |
| 1777876215 | 5° C | 48% | 1018.4 hPa | 0 mm | - | 0 W/m² | - |
| 1777875911 | 5.56° C | 48% | 1018 hPa | 0 mm | - | 0 W/m² | - |
| 1777875607 | 5.56° C | 48% | 1018 hPa | 0 mm | - | 0 W/m² | - |
| 1777875304 | 5.56° C | 48% | 1018.2 hPa | 0 mm | - | 0 W/m² | - |
| 1777875001 | 6.11° C | 47% | 1018.3 hPa | 0 mm | - | 0 W/m² | - |
| 1777874696 | 6.11° C | 47% | 1018 hPa | 0 mm | - | 0 W/m² | - |
| 1777874393 | 5.56° C | 45% | 1018 hPa | 0 mm | - | 0 W/m² | - |
| 1777874091 | 5° C | 52% | 1018.5 hPa | 0 mm | - | 0 W/m² | - |
| 1777873789 | 5° C | 48% | 1018.3 hPa | 0 mm | - | 0 W/m² | - |
| 1777873485 | 5.56° C | 48% | 1018.3 hPa | 0 mm | - | 0 W/m² | - |
| 1777873182 | 5.56° C | 50% | 1018.2 hPa | 0 mm | - | 0 W/m² | - |
| 1777872878 | 5.56° C | 46% | 1018.2 hPa | 0 mm | - | 0 W/m² | - |
| 1777872577 | 5.56° C | 50% | 1018.2 hPa | 0 mm | - | 0 W/m² | - |
| 1777872274 | 5.56° C | 47% | 1018 hPa | 0 mm | - | 0 W/m² | - |
| 1777871972 | 5.56° C | 49% | 1018.3 hPa | 0 mm | - | 0 W/m² | - |
| 1777871667 | 5.56° C | 49% | 1018.3 hPa | 0 mm | - | 0 W/m² | - |
| 1777871364 | 5.56° C | 49% | 1018.3 hPa | 0 mm | - | 0 W/m² | - |
| 1777871061 | 5.56° C | 48% | 1018.4 hPa | 0 mm | - | 0 W/m² | - |
| 1777870758 | 5° C | 50% | 1018.8 hPa | 0 mm | - | 0 W/m² | - |
| 1777870454 | 5.56° C | 51% | 1018.4 hPa | 0 mm | - | 0 W/m² | - |
* Rain latest hour (hover to see other rain measurements)
** Current wind speed in m/s (hover to see current wind gust speed)